Location: Newark
(39.6172°N, 96.8533°W)
Time: 06:11:49
(UTC+00:00)

Courier 1B - All Passes

Search period start: 25 February 2020 00:00
Search period end: 06 March 2020 00:00
Orbit: 962 x 1209 km, 28.3° (Epoch: 24 February)

Date Brightness Start Highest point End Pass type
(mag) Time Alt. Az. Time Alt. Az. Time Alt. Az.
25 Feb - 01:45:17 10° WSW 01:49:53 18° SSW 01:54:19 10° SSE visible
25 Feb - 19:10:57 10° SSW 19:15:59 18° SSE 19:20:59 10° ESE daylight
25 Feb - 21:02:42 10° SW 21:09:24 32° S 21:15:54 10° ESE daylight
25 Feb - 22:56:13 10° WSW 23:02:57 34° S 23:09:24 10° ESE daylight
26 Feb - 00:50:50 10° WSW 00:56:19 22° SSW 01:01:34 10° SSE visible
26 Feb - 18:18:22 10° S 18:22:20 15° SSE 18:26:16 10° ESE daylight
26 Feb - 20:09:08 10° SW 20:15:38 29° SSE 20:22:02 10° ESE daylight
26 Feb - 22:02:19 10° WSW 22:09:13 35° S 22:15:51 10° ESE daylight
26 Feb - 23:56:36 10° WSW 00:02:41 26° SSW 00:08:31 10° SE daylight
27 Feb - 01:53:35 10° SW 01:55:44 11° SSW 01:57:52 10° SSW visible
27 Feb - 17:27:01 10° SSE 17:28:41 11° SSE 17:30:22 10° SE daylight
27 Feb - 19:15:44 10° SW 19:21:54 26° SSE 19:28:01 10° ESE daylight
27 Feb - 21:08:30 10° WSW 21:15:27 35° S 21:22:12 10° ESE daylight
27 Feb - 23:02:29 10° WSW 23:09:00 30° SSW 23:15:16 10° SE daylight
28 Feb - 00:58:04 10° WSW 01:02:12 16° SSW 01:06:13 10° S visible
28 Feb - 18:22:34 10° SSW 18:28:11 22° SSE 18:33:50 10° ESE daylight
28 Feb - 20:14:46 10° SW 20:21:40 34° S 20:28:27 10° ESE daylight
28 Feb - 22:08:27 10° WSW 22:15:16 33° S 22:21:51 10° SE daylight
29 Feb - 00:03:23 10° WSW 00:08:37 20° SSW 00:13:41 10° SSE daylight
29 Feb - 17:29:42 10° SSW 17:34:31 18° SSE 17:39:21 10° ESE daylight
29 Feb - 19:21:10 10° SW 19:27:53 32° S 19:34:34 10° ESE daylight
29 Feb - 21:14:32 10° WSW 21:21:30 35° S 21:28:18 10° ESE daylight
29 Feb - 23:09:01 10° WSW 23:14:58 24° SSW 23:20:44 10° SSE daylight
01 Mar - 16:37:26 10° S 16:40:52 14° SSE 16:44:22 10° SE daylight
01 Mar - 18:27:43 10° SW 18:34:07 28° SSE 18:40:35 10° ESE daylight
01 Mar - 20:20:42 10° WSW 20:27:42 36° S 20:34:37 10° ESE daylight
01 Mar - 22:14:50 10° WSW 22:21:17 28° SSW 22:27:33 10° SE daylight
02 Mar - 00:11:07 10° SW 00:14:28 13° SSW 00:17:45 10° S daylight
02 Mar - 17:34:27 10° SSW 17:40:24 25° SSE 17:46:27 10° ESE daylight
02 Mar - 19:26:59 10° WSW 19:33:54 35° S 19:40:51 10° ESE daylight
02 Mar - 21:20:47 10° WSW 21:27:32 32° S 21:34:09 10° SE daylight
02 Mar - 23:16:04 10° WSW 23:20:51 18° SSW 23:25:33 10° SSE daylight
03 Mar - 16:41:27 10° SSW 16:46:43 20° SSE 16:52:06 10° ESE daylight
03 Mar - 18:33:22 10° SW 18:40:07 34° S 18:46:59 10° ESE daylight
03 Mar - 20:26:52 10° WSW 20:33:45 34° S 20:40:36 10° SE daylight
03 Mar - 22:21:33 10° WSW 22:27:12 22° SSW 22:32:45 10° SSE daylight
04 Mar - 15:48:50 10° S 15:53:05 16° SSE 15:57:26 10° ESE daylight
04 Mar - 17:39:53 10° SW 17:46:21 31° SSE 17:53:00 10° ESE daylight
04 Mar - 19:33:02 10° WSW 19:39:57 36° S 19:46:56 10° ESE daylight
04 Mar - 21:27:18 10° WSW 21:33:30 26° SSW 21:39:38 10° SE daylight
04 Mar - 23:24:57 10° SW 23:26:40 11° SSW 23:28:23 10° SSW daylight
05 Mar - 14:57:02 10° S 14:59:31 12° SSE 15:02:01 10° SE daylight
05 Mar - 16:46:34 10° SW 16:52:38 27° SSE 16:58:54 10° ESE daylight
05 Mar - 18:39:18 10° WSW 18:46:09 36° S 18:53:09 10° ESE daylight
05 Mar - 20:33:13 10° WSW 20:39:46 29° SSW 20:46:18 10° SE daylight
05 Mar - 22:29:02 10° WSW 22:33:03 15° SSW 22:37:03 10° S daylight
